Вернуться в каталог

FENGYUN 1C DEB

АктивенPO
NORAD 31058·DEBRIS·🇨🇳 China

Запущен May 10, 1999 с Taiyuan Satellite Launch Center

Loading…

Ближайшие Пролёты (ближайшие 24 часа)

TLE

УстаревающийSource: Space-Track

Эпоха: Sep 10, 2026, 06:41 UTC

1 31058U 99025BFC 26253.27872102  .00003885  00000-0  48266-3 0  9992
2 31058  99.5875 259.0669 0086926 349.8694  10.0758 14.80728426 35071

Отслеживайте FENGYUN 1C DEB в реальном времени с AllMySat

Download on the App Store